Location: Albany
(35.0170°S, 117.8920°E)
Time: 21:17:34
(UTC+08:00)

S-56A Canister/Altair - Pass Details

Date: 26 June 2021
Orbit: 632 x 2501 km, 38.9° (Epoch: 24 July)

Event Time Altitude Azimuth Distance (km) Brightness Sun altitude
Rises 18:05:40 0° 255° (WSW) 6,033 13.1 -12.0°
Reaches altitude 10° 18:09:29 10° 254° (WSW) 5,118 12.6 -12.8°
Maximum altitude 18:24:56 86° 163° (SSE) 2,430 9.9 -15.8°
Enters shadow 18:36:55 14° 73° (ENE) 4,158 10.8 -18.1°
